Regional Weather Roundup
Issued by NWS Green Bay, WI

Home | Current Version | Previous Version | Graphics & Text | Print | Product List | Glossary Off
Versions: 1 2 3 4 5 6 7 8 9 10 11 12 13 14 15 16 17 18 19 20 21 22 23 24 25 26 27 28 29 30 31 32 33 34 35 36 37 38 39 40 41 42 43 44 45 46 47 48 49 50

000
ASUS43 KGRB 280811
RWRGRB

NORTH-CENTRAL AND NORTHEAST WISCONSIN REGIONAL WEATHER ROUNDUP
NATIONAL WEATHER SERVICE GREEN BAY WI
300 AM CDT WED JUN 28 2017

WIZ005-009-010>012-018-019-280900-
NORTH CENTRAL WISCONSIN

CITY           SKY/WX    TMP DP  RH WIND       PRES   REMARKS
IRONWOOD       CLEAR     58  47  66 S6        29.81F
MANITOWISH WTR CLEAR     54  48  81 S7        29.84F
ARBOR VITAE    CLEAR     57  49  76 S5        29.85F
EAGLE RIVER    CLEAR     52  45  77 CALM      29.87F
LAND O LAKES   CLOUDY    53  47  79 CALM      29.89F
RHINELANDER    CLEAR     52  47  83 CALM      29.88F
PHILLIPS       CLOUDY    55  47  76 S7        29.83F
ANTIGO         CLEAR     51  47  87 S7        29.90F
TOMAHAWK       NOT AVBL
MERRILL        PTCLDY    49  48  97 CALM      29.88F
$$

WIZ013-073-280900-
NORTHEAST WISCONSIN

CITY           SKY/WX    TMP DP  RH WIND       PRES   REMARKS
IRON MOUNTAIN  CLOUDY    56  47  71 SE3       29.89F
MARINETTE      CLOUDY    61  53  75 SW6       29.92F
OCONTO         CLEAR     55  51  84 CALM      29.92F
$$

WIZ017-030-035>037-045-280900-
CENTRAL WISCONSIN

CITY           SKY/WX    TMP DP  RH WIND       PRES   REMARKS
MEDFORD        MOCLDY    53  47  80 SE9       29.86S
WAUSAU           N/A    N/A N/A N/A MISG      29.88F
MOSINEE        PTCLDY    52  46  82 SE5       29.90F
MARSHFIELD     MOCLDY    53  47  79 S8        29.87F
WISC RAPIDS    PTCLDY    55  47  74 S3        29.90F
STEVENS POINT  PTCLDY    55  46  70 S6        29.90F
WAUPACA        PTCLDY    54  51  91 CALM      29.92F
SHAWANO        CLEAR     57  50  77 CALM      29.90F
CLINTONVILLE   CLEAR     52  46  82 S3        29.91F
WAUTOMA        PTCLDY    48  47  96 CALM      29.92F
$$

WIZ038-039-048-051-280900-
FOX VALLEY

CITY           SKY/WX    TMP DP  RH WIND       PRES   REMARKS
NWS GREEN BAY  CLEAR     57  53  86 S6        29.92F
APPLETON       CLEAR     55  45  67 S8        29.91F
OSHKOSH        CLEAR     55  49  80 S7        29.93F
FOND DU LAC    CLEAR     57  47  69 S6        29.94F
$$

WIZ022-050-052-280900-
EAST CENTRAL WISCONSIN

CITY           SKY/WX    TMP DP  RH WIND       PRES   REMARKS
EPHRAIM        FAIR      58  48  68 S3        29.93F
WASHINGTON ISL PTSUNNY   62  49  62 SW7       29.92F
STURGEON BAY     N/A     59  49  69 S8        29.94F
MANITOWOC      CLEAR     58  49  72 S6        29.95F
SHEBOYGAN      CLEAR     52  50  93 S5        29.95F
$$

LMZ563-521-522-541>543-280900-
LAKESHORE

STATION/POSITION TIME  TEMP    WIND        PRES    VSBY  WAVE
                       AIR SEA DIR/SP/G                  HT/PER
                 (UTC) (F)     (DEG/KT/KT) (MB)    (MI)  (FT/S)
SHEBOYGAN LKSHOR 0800   57     170/ 12/ 13 1013.8F
KEWAUNEE LKSHORE 0742   53     200/  5/  7 1013.8F
ALGOMA MARINA    0803   55     210/  4/  6   N/A
NORTHPORT PIER   0740   61     170/  4/  8 1013.5F
N MID LAKE BUOY  0750   58 56  190/ 14/ 16 1014.2F         3/ 5
S GREEN BAY BUOY 0800   65     200/ 14/ 17 1013.0
SISTER BAY LKSHO 0723   63     180/ 10/ 11   N/A
CHAMBERS ISLAND  0740   64     180/  4/  8 1013.2F
MENOMINEE LKSHOR 0736          200/  9/ 12 1012.7F
$$



USA.gov is the U.S. government's official web portal to all federal, state and local government web resources and services.